Regional Weather Roundup
Issued by NWS

Home | Current Version | Previous Version | Graphics & Text | Print | Product List | Glossary On
Versions: 1 2 3 4 5 6 7 8 9 10 11 12 13 14 15 16 17 18 19 20 21 22 23 24 25 26 27 28 29 30 31 32 33 34 35 36 37 38 39 40 41 42 43 44 45 46 47 48 49 50
000
ASUS45 KSLC 051510
RWRUT

UTAH REGIONAL WEATHER ROUNDUP
NATIONAL WEATHER SERVICE SALT LAKE CITY UT
900 AM MDT TUE MAY 05 2015

UTZ001>011-023>025-051600-

NORTHERN UTAH

CITY           SKY/WX    TMP DP  RH WIND       PRES   REMARKS
DUGWAY         PTSUNNY   55  50  82 CALM      29.89
HILL AFB       PTSUNNY   55  44  66 E9        29.88S
LOGAN          SUNNY     54  46  74 N5        29.87F
OGDEN          CLOUDY    58  43  57 S8        29.86S
PROVO AIRPORT  PTSUNNY   57  46  67 SE5       29.88S
SALT LAKE CITY CLOUDY    62  45  53 CALM      29.86R
VERNAL         PTSUNNY   56  42  59 CALM      29.89F
WENDOVER       PTSUNNY   63  45  51 E9        29.86S
HEBER CITY     CLOUDY    50  41  71 CALM      29.91F
WEST JORDAN    CLOUDY    59  50  72 S8        29.88R

$$

UTZ012>022-026-027-051600-

SOUTHERN/CENTRAL UTAH

CITY           SKY/WX    TMP DP  RH WIND       PRES   REMARKS
BLANDING       CLOUDY    48  45  91 S3        30.00S
BRYCE CANYON   MOSUNNY   48  41  76 NW7       29.98S
CEDAR CITY     CLOUDY    51  47  86 SW5       29.94R
DELTA          CLOUDY    56  47  72 S8        29.90R
HANKSVILLE     CLOUDY    54  52  94 CALM      29.91S
MILFORD        CLOUDY    52  49  89 S14       29.91R
MOAB/CYNLANDS  LGT RAIN  55  52  89 SW8       29.86S
PRICE          CLOUDY    53  47  79 SE7       29.91R
ST GEORGE      CLOUDY    61  50  67 W5        29.92S
KANAB          PTSUNNY   54  46  76 CALM      29.97S

$$

REGIONAL REPORTS     COLORADO/ARIZONA

CITY           SKY/WX    TMP DP  RH WIND       PRES   REMARKS
CRAIG, CO      SUNNY     49  39  68 CALM      29.93F
GRAND JUNCTION CLOUDY    58  44  60 SE3       29.86S
RIFLE          MOSUNNY   53  43  68 CALM      29.90S
MONTROSE       CLOUDY    52  46  80 CALM      29.91S
CORTEZ         LGT RAIN  48  45  89 S5        29.95R
PAGE, AZ       PTSUNNY   60  51  72 E3        29.89S
GRAND CANYON   CLOUDY    47  42  83 SW7       30.00S
KINGMAN        CLOUDY    57  52  83 SE8       29.94S
FLAGSTAFF      CLOUDY    46  40  79 W7        30.01S

$$

REGIONAL REPORTS    NEVADA/IDAHO/WYOMING

CITY           SKY/WX    TMP DP  RH WIND       PRES   REMARKS
LAS VEGAS, NV  MOSUNNY   68  45  43 E6        29.82R
ELY            CLOUDY    49  37  63 S9        29.96R
ELKO           MOSUNNY   50  37  61 CALM      29.92S
POCATELLO, ID  MOSUNNY   58  44  60 NW5       29.86S
BURLEY         MOSUNNY   59  43  55 SW6       29.83R
EVANSTON, WY   PTSUNNY   47  38  71 E5        29.97S
ROCK SPRINGS   MOSUNNY   47  40  76 CALM      29.96S
KEMMERER       MOSUNNY   50  41  71 NE6       29.98F

$$



USA.gov is the U.S. government's official web portal to all federal, state and local government web resources and services.